COSMOS 252 DEB *, 18597

Orbit data source: Space-Track

COSMOS 252 DEB *, 18597 is space debris in LEO originally from a launch on Fri, 01 Nov 1968 UTC launched from the Tyuratam Missile And Space Complex (TTMTR). Debris objects in space refer to the collection of defunct objects orbiting the Earth. Examples of debris include non-operational satellites, rocket bodies, and fragments generated from explosions, collisions, or faulty payload assembly.

Loading next visibility...
Identifier
18597, 1968-097EQ
Orbit
LEO
Country
Flag of CISCIS
Related business
Manufacturer
Unknown
Mission
Spacecraft
Bus & Motor
Unknown
Mass
Unknown
Launch date (UTC)
1968-11-01 (57 years ago)
Launch vehicle
Unknown
Launch site
Tyuratam Missile And Space Complex (TTMTR)
Object type
Payload
Rocket body
Debris
Shape & HBR
Unknown shape, 0.1 m
Radar Cross Section
Small (<0.1 m²)

Expand to show TLE details & history
Last TLE update: 1 day ago

TLE from 1 day ago
0 COSMOS 252 DEB *
1 18597U 68097EQ  25287.05839294  .00000972  00000-0  14678-2 0  9990
2 18597  62.2580 155.2154 0762756 358.9778   0.9612 12.75193476552711
Epoch: 2025-10-14T01:24Z
TLE epoch observation values (Epoch: 2025-10-14T01:24:05.150Z)
Latitude
0.00005°
Longitude
111.34169°
Altitude
772.239 km
Speed
7.748 km/s
True Right ascension
10h 20m 51s
True Declination
0° 00' 00"
Sunlit
Object was in daylight at epoch
Visualization orbit readout
Latitude
Unknown
Longitude
Unknown
Altitude
Unknown
Speed
Unknown
Apparent Right ascension
Unknown
Apparent Declination
Unknown
Sunlit
N/A
Visualization observer readout
Local Sidereal Time
06:49:08
Azimuth
Unknown
Elevation
Unknown
Doppler factor
Unknown
Orbital elements
Apogee altitude
1,950.076 km
Perigee altitude
769.636 km
Semi-major axis
7,737.993 km
Eccentricity
0.07628
Inclination
62.258°
RAAN
155.2154°
Arg. of periapsis
358.9778°
True anomaly
1.1232°
Mean anomaly
0.9612°
Eccentric anomaly
1.04057°
Mean motion
3.1886 °/min
Orbital period
112.9 mins
BSTAR
0.0014678
Loading maneuver chart data...
Computing Atmospheric mass density...
Loading historical data...
Loading historical data...
Loading historical data...
Loading historical data...
Loading historical data...
Loading historical data...
Loading historical data...

Documentation

Showing up to 5 results
|